[[{"header":{"parameterUnit":"m.s-1","parameterCategory":1,"la1":30.2991,"la2":30.254,"lo1":-89.0895,"lo2":-89.0444,"dy":0.0017,"dx":0.0017,"nx":28,"ny":28,"refTime":"2024-08-10T09:00:00:Z","depth":0,"parameterNumber":2,"parameterNumberName":"U-component_of_WINDS"},"data":[0,0,0,0,0,0,0,0,0,0,0,0,0,0,0,0,0,0,0,0,0,0,0,0,0,0,0,0,0,0,0,0,0,0,0,0,0,0,0,0,0,0,0,0,0,0,0,0,0,0,0,0,0,0,0,0,0,0,1.4158,1.416,0,1.4332,1.4334,1.4336,1.4385,1.4384,1.4383,1.4382,1.4561,1.4566,1.4572,0,0,0,0,0,0,0,0,0,0,0,0,0,1.3867,1.3872,1.4158,1.416,1.4162,1.4331,1.4334,1.4336,1.4385,1.4384,1.4383,1.4381,1.4559,1.4565,1.4572,0,0,0,0,0,0,0,0,0,0,0,0,0,1.4012,1.3873,1.4157,1.4207,1.4213,1.4331,1.4334,1.4337,1.4385,1.4384,1.4382,1.4381,1.4557,1.4565,1.4573,1.4655,0,0,1.4599,1.4603,0,0,0,0,0,0,0,0,1.4004,1.4023,1.4197,1.4204,1.4211,1.4335,1.4297,1.4443,1.4385,1.432,1.4382,1.438,1.4487,1.4501,1.4537,1.4663,1.4671,1.46,1.4605,1.4609,1.4611,0,0,0,0,0,0,0,1.3994,1.4015,1.4227,1.42,1.4208,1.422,1.4239,1.4325,1.4409,1.4325,1.4329,1.4349,1.449,1.4528,1.4541,1.4673,1.46,1.4607,1.4612,1.4616,1.4873,1.4875,0,0,0,0,0,0,1.3975,1.4007,1.4221,1.4232,1.4101,1.4226,1.4248,1.4297,1.4409,1.4424,1.435,1.4351,1.4515,1.4531,1.4548,1.4649,1.4609,1.4617,1.4621,1.4871,1.4873,1.4875,0,0,0,0,0,0,1.3969,1.3994,1.4214,1.412,1.4149,1.4233,1.4287,1.4301,1.4339,1.4427,1.4443,1.4374,1.4514,1.4536,1.4627,1.4656,1.462,1.4628,1.4869,1.4872,1.4874,1.4852,0,0,0,0,0,0,1.396,1.3991,1.4023,1.4121,1.4154,1.4291,1.4289,1.4305,1.4354,1.4356,1.4454,1.4468,1.4515,1.4614,1.4636,1.4667,1.4635,1.4867,1.4871,1.4874,1.4851,1.4854,1.4857,0,0,0,0,0,1.395,1.4011,1.4025,1.405,1.4196,1.4292,1.4311,1.4363,1.4356,1.4388,1.4445,1.4465,1.4649,1.4623,1.4648,1.4682,1.4866,1.487,1.4873,1.485,1.4853,1.4857,0,0,0,0,0,0,1.3915,1.4025,1.4041,1.4136,1.4204,1.43,1.4343,1.4366,1.4438,1.4437,1.4499,1.452,1.4607,1.4654,1.4623,1.4766,1.4758,1.4767,1.4732,1.4736,1.4738,1.4725,1.4642,0,0,0,0,0,1.3918,1.3987,1.408,1.4154,1.4188,1.4259,1.4303,1.4337,1.441,1.444,1.4503,1.4573,1.4647,1.4694,1.4767,1.4858,1.4879,1.4894,1.4897,1.4898,1.4905,1.4955,1.4962,1.4888,1.4888,1.4888,0,0,1.3926,1.3995,1.4035,1.4149,1.4206,1.4275,1.4283,1.4357,1.4409,1.4451,1.454,1.4589,1.4672,1.4763,1.4806,1.4805,1.493,1.4903,1.4904,1.491,1.496,1.4966,1.4973,1.4891,1.489,1.489,0,0,1.3975,1.4035,1.4102,1.4159,1.4245,1.4292,1.4308,1.4401,1.4434,1.4525,1.4557,1.462,1.4746,1.4803,1.4848,1.4917,1.4938,1.4939,1.4953,1.5001,1.5007,1.5012,1.5035,1.5043,1.4946,1.4946,1.4946,0,1.3974,1.408,1.4134,1.4206,1.4254,1.4295,1.4363,1.4416,1.4521,1.4553,1.455,1.4708,1.4767,1.487,1.4887,1.4923,1.4942,1.4928,1.5002,1.5008,1.5014,1.5036,1.5045,1.4945,1.4945,1.4945,1.4945,0,1.4073,1.4146,1.4191,1.429,1.4344,1.4414,1.4477,1.4525,1.4554,1.4601,1.4692,1.4764,1.4851,1.4878,1.4908,1.4986,1.4982,1.499,1.4983,1.5019,1.5041,1.505,1.4944,1.4945,1.4945,1.4945,0,0,1.4106,1.4233,1.4249,1.4293,1.4391,1.4448,1.4519,1.4603,1.4642,1.4713,1.4773,1.4878,1.4885,1.4936,1.4973,1.5015,1.5062,1.5017,1.502,1.5021,1.515,1.5143,1.5152,1.5077,1.5079,1.508,1.5143,0,1.4166,1.4294,1.4344,1.4448,1.4514,1.4554,1.4615,1.4681,1.4726,1.479,1.484,1.4913,1.4917,1.4948,1.4992,1.5047,1.5088,1.5043,1.5132,1.5135,1.5109,1.5164,1.5157,1.5212,1.5152,1.5153,1.5155,0,1.4253,1.4324,1.4434,1.4521,1.4551,1.4605,1.4686,1.4746,1.4821,1.4851,1.4907,1.4941,1.5015,1.5004,1.5107,1.5075,1.5115,1.5147,1.5151,1.516,1.5146,1.5173,1.5232,1.5239,1.5169,1.5168,1.5167,0,1.4263,1.4386,1.4467,1.4505,1.4609,1.4646,1.4691,1.4765,1.4811,1.4882,1.4913,1.4991,1.5034,1.5093,1.5146,1.5134,1.5244,1.5238,1.527,1.5269,1.5291,1.5288,1.5355,1.5318,1.5318,1.5318,1.5318,0,1.4324,1.439,1.4473,1.4523,1.4597,1.4653,1.4725,1.4773,1.4837,1.4897,1.4936,1.499,1.5058,1.5121,1.5163,1.5241,1.5261,1.5286,1.5297,1.5282,1.5279,1.5308,1.5305,1.532,1.532,1.5319,1.5319,0,1.4348,1.4407,1.4497,1.4588,1.4612,1.4663,1.474,1.4789,1.4836,1.4911,1.4931,1.5005,1.5081,1.514,1.524,1.5268,1.535,1.5362,1.5324,1.5329,1.5357,1.5353,1.5444,1.5458,1.5413,1.5413,1.5414,0,1.4382,1.4433,1.4529,1.4571,1.4616,1.4683,1.4731,1.4788,1.4836,1.4924,1.4963,1.5042,1.5108,1.5227,1.529,1.5366,1.5379,1.5405,1.539,1.5373,1.5377,1.5373,1.5377,1.5406,1.5407,1.5407,1.5407,0,1.4436,1.4462,1.453,1.4607,1.4662,1.4726,1.479,1.4822,1.4891,1.4943,1.5021,1.5072,1.5173,1.525,1.5332,1.5378,1.5404,1.5411,1.5422,1.5408,1.5383,1.5395,1.5327,1.5409,1.5409,1.5408,1.5408,1.5408,1.4466,1.4512,1.4586,1.4659,1.4713,1.4772,1.4822,1.4875,1.4941,1.5026,1.5057,1.5136,1.5208,1.5321,1.5368,1.543,1.5432,1.5448,1.5452,1.5455,1.5453,1.5374,1.5446,1.5446,1.5446,1.5446,1.5446,0,1.452,1.4569,1.4636,1.4724,1.4781,1.48,1.4872,1.4918,1.4987,1.5053,1.5116,1.5205,1.5279,1.5347,1.5425,1.5462,1.5475,1.548,1.5477,1.5487,1.5448,1.543,1.5468,1.5468,1.5468,1.5468,1.5468,1.5468,1.4555,1.4634,1.4668,1.4774,1.4823,1.4901,1.494,1.4994,1.5046,1.5143,1.5204,1.5248,1.5314,1.5396,1.5465,1.5483,1.5509,1.5511,1.5531,1.5493,1.549,1.5487,1.547,1.5516,1.5516,1.5565,1.5566,1.5566]},{"header":{"parameterUnit":"m.s-1","parameterCategory":1,"la1":30.2991,"la2":30.254,"lo1":-89.0895,"lo2":-89.0444,"dy":0.0017,"dx":0.0017,"nx":28,"ny":28,"refTime":"2024-08-10T09:00:00:Z","depth":0,"parameterNumber":3,"parameterNumberName":"V-component_of_WINDS"},"data":[0,0,0,0,0,0,0,0,0,0,0,0,0,0,0,0,0,0,0,0,0,0,0,0,0,0,0,0,0,0,0,0,0,0,0,0,0,0,0,0,0,0,0,0,0,0,0,0,0,0,0,0,0,0,0,0,0,0,2.8657,2.8656,0,2.8578,2.8577,2.8576,2.8497,2.8496,2.8495,2.8494,2.8411,2.841,2.8409,0,0,0,0,0,0,0,0,0,0,0,0,0,2.8737,2.8736,2.8657,2.8656,2.8655,2.8578,2.8577,2.8576,2.8498,2.8496,2.8495,2.8494,2.8412,2.841,2.8409,0,0,0,0,0,0,0,0,0,0,0,0,0,2.8685,2.8736,2.8657,2.8607,2.8601,2.8578,2.8577,2.8576,2.8498,2.8496,2.8495,2.8493,2.8412,2.841,2.8409,2.8428,0,0,2.8403,2.8402,0,0,0,0,0,0,0,0,2.8688,2.8682,2.8615,2.861,2.8604,2.8546,2.8575,2.8526,2.8498,2.8537,2.8494,2.8492,2.8457,2.8452,2.844,2.8425,2.8421,2.8403,2.8402,2.8401,2.84,0,0,0,0,0,0,0,2.8691,2.8685,2.8625,2.8614,2.8607,2.8587,2.8578,2.8565,2.8507,2.8534,2.8528,2.8519,2.8454,2.8442,2.8438,2.842,2.8403,2.8401,2.84,2.8399,2.8415,2.8416,0,0,0,0,0,0,2.8703,2.8688,2.8628,2.8623,2.8643,2.8587,2.8577,2.8566,2.8507,2.8496,2.8521,2.8516,2.8446,2.844,2.8434,2.8452,2.8401,2.8399,2.8398,2.8413,2.8415,2.8416,0,0,0,0,0,0,2.8705,2.8698,2.8631,2.8654,2.8644,2.8587,2.8576,2.8565,2.8553,2.8497,2.8486,2.852,2.8445,2.8437,2.843,2.8448,2.8398,2.8397,2.8411,2.8414,2.8416,2.8488,0,0,0,0,0,0,2.8708,2.87,2.8707,2.8655,2.8643,2.8629,2.8577,2.8565,2.8551,2.8544,2.8493,2.8483,2.8443,2.8433,2.8428,2.8444,2.8395,2.8409,2.8412,2.8415,2.8484,2.8493,2.85,0,0,0,0,0,2.8711,2.8731,2.8708,2.8701,2.8651,2.863,2.8624,2.8577,2.8553,2.8559,2.8523,2.8485,2.8448,2.8433,2.8427,2.8443,2.8408,2.8411,2.8415,2.848,2.8491,2.85,0,0,0,0,0,0,2.8785,2.8723,2.8697,2.87,2.8672,2.8617,2.8624,2.859,2.8567,2.8561,2.8504,2.8494,2.8493,2.8467,2.8453,2.8458,2.8422,2.8425,2.8474,2.8484,2.8492,2.8497,2.8394,0,0,0,0,0,2.8803,2.8792,2.8737,2.8745,2.8732,2.8681,2.867,2.8637,2.8604,2.8591,2.8555,2.8524,2.8505,2.8493,2.8473,2.8481,2.8467,2.8488,2.8497,2.8504,2.8505,2.8505,2.8513,2.8428,2.8428,2.8428,0,0,2.8837,2.8802,2.8798,2.876,2.8733,2.8722,2.8671,2.8662,2.8652,2.859,2.858,2.8553,2.8515,2.8515,2.8513,2.8493,2.8526,2.8508,2.8514,2.8512,2.851,2.8518,2.8525,2.843,2.843,2.8429,0,0,2.8894,2.8867,2.887,2.8845,2.8806,2.8772,2.8773,2.8723,2.8703,2.8693,2.8645,2.8634,2.8603,2.8577,2.8559,2.8607,2.8571,2.8602,2.8644,2.8645,2.8651,2.8657,2.8672,2.8678,2.8605,2.8605,2.8605,0,2.8941,2.8923,2.8876,2.8869,2.8852,2.8797,2.8798,2.8776,2.8733,2.8722,2.8702,2.8661,2.8631,2.8624,2.8635,2.8624,2.8622,2.8606,2.8654,2.866,2.8664,2.8677,2.8683,2.8609,2.8609,2.8608,2.8608,0,2.8982,2.8971,2.8978,2.8937,2.8922,2.892,2.8871,2.8861,2.883,2.8798,2.8788,2.8751,2.8721,2.8718,2.8687,2.8705,2.8694,2.8665,2.8627,2.8677,2.8688,2.8693,2.8615,2.8613,2.8612,2.8611,0,0,2.9081,2.9015,2.9018,2.8999,2.8952,2.8942,2.8937,2.8908,2.89,2.8873,2.8865,2.8841,2.8813,2.8794,2.876,2.8762,2.8799,2.8732,2.873,2.8743,2.8814,2.8835,2.8842,2.8776,2.8777,2.8777,2.8817,0,2.9128,2.9116,2.9073,2.9073,2.9061,2.9008,2.9003,2.8974,2.8944,2.8928,2.8895,2.8878,2.8844,2.8832,2.8831,2.8795,2.8812,2.8792,2.8766,2.8766,2.8775,2.8848,2.8869,2.8908,2.8821,2.8822,2.8822,0,2.918,2.9156,2.9155,2.9108,2.9101,2.9098,2.9068,2.9055,2.902,2.8998,2.8977,2.8939,2.8929,2.8897,2.8882,2.8869,2.8857,2.8837,2.8838,2.8831,2.8795,2.8841,2.892,2.8925,2.8829,2.8829,2.8828,0,2.9249,2.9217,2.9212,2.9197,2.9143,2.9141,2.9119,2.9082,2.9068,2.9042,2.9031,2.9005,2.899,2.897,2.8925,2.8906,2.8915,2.8879,2.8894,2.8895,2.8896,2.8896,2.8972,2.8893,2.8893,2.8893,2.8893,0,2.9304,2.9305,2.9242,2.9238,2.9238,2.9189,2.9189,2.9161,2.9129,2.9119,2.9072,2.9063,2.9007,2.8991,2.8956,2.8948,2.8942,2.8923,2.8913,2.8925,2.8928,2.8914,2.891,2.8894,2.8894,2.8894,2.8893,0,2.938,2.9338,2.9329,2.9279,2.9266,2.9267,2.9224,2.9218,2.9186,2.9173,2.9167,2.9117,2.9095,2.905,2.9017,2.8993,2.8992,2.8977,2.9004,2.8998,2.9015,2.9013,2.9083,2.9088,2.9009,2.901,2.901,0,2.9416,2.9416,2.9366,2.9356,2.9335,2.932,2.9305,2.9257,2.9243,2.9203,2.9202,2.9178,2.9155,2.9123,2.9083,2.9057,2.9038,2.9065,2.9034,2.9046,2.9036,2.9035,2.9034,2.9071,2.9072,2.9073,2.9073,0,2.9484,2.9464,2.9445,2.9418,2.9402,2.9379,2.9353,2.9347,2.9293,2.928,2.9258,2.924,2.9206,2.9182,2.915,2.9125,2.9089,2.9084,2.9086,2.9097,2.9112,2.9101,2.902,2.9082,2.9081,2.908,2.908,2.9079,2.954,2.9536,2.95,2.948,2.9456,2.9433,2.9425,2.9392,2.9373,2.9342,2.9315,2.9296,2.926,2.9213,2.9191,2.9174,2.9157,2.916,2.916,2.9161,2.9165,2.9117,2.9168,2.9168,2.9168,2.9168,2.9167,0,2.9603,2.9578,2.956,2.9526,2.951,2.948,2.945,2.9438,2.9421,2.9392,2.9371,2.9345,2.9321,2.9279,2.9252,2.9246,2.9229,2.924,2.9239,2.9233,2.9184,2.9184,2.9254,2.9254,2.9254,2.9254,2.9254,2.9254,2.9634,2.9626,2.9602,2.9581,2.9555,2.9536,2.9521,2.9499,2.9475,2.9449,2.9429,2.9403,2.9368,2.9337,2.9313,2.9301,2.9292,2.9308,2.9291,2.9245,2.9237,2.9229,2.9229,2.9307,2.9307,2.9341,2.9342,2.9342]}]]